Location: Bettgenhausen
(50.6463°N, 7.5681°E)
Time: 18:52:49
(UTC+00:00)

Nadezhda 4 Rocket - Pass Details

Date: 27 February 2020
Orbit: 950 x 991 km, 82.9° (Epoch: 28 March)

Event Time Altitude Azimuth Distance (km) Brightness Sun altitude
Rises 17:55:32 0° 353° (N) 3,698 7.1 -8.5°
Reaches altitude 10° 17:58:14 10° 1° (N) 2,751 6.3 -8.9°
Maximum altitude 18:04:10 42° 71° (ENE) 1,392 4.4 -9.9°
Drops below altitude 10° 18:10:07 10° 141° (SE) 2,749 6.0 -10.8°
Sets 18:12:47 0° 148° (SSE) 3,695 6.7 -11.2°
